When you browse on this site, cookies collect data to enhance your experience and personalize the content and advertising you see.
Visit our Privacy Policy to learn more. By continuing to use the site, you agree to this use of cookies and data.
  • In Hungary
  • List of Countries
  • For 7 days
  • Water Temperature
  • Weather Map
  • News
  • Weather Widgets
  • user-avatar
    Login

    Hourly Weather Yablun'ka

    Today, 7 April, Tuesday

    Time Temperature Precipitation Wind Pressure Humidity
    00:00 +6°C° 0 mm 2 mps 759 mmHg 49%
    01:00 +5°C° 0 mm 2 mps 759 mmHg 51%
    02:00 +5°C° 0 mm 2 mps 759 mmHg 53%
    03:00 +5°C° 0 mm 2 mps 759 mmHg 53%
    04:00 +4°C° 0 mm 2 mps 759 mmHg 54%
    05:00 +4°C° 0 mm 2 mps 759 mmHg 54%
    06:00 +5°C° 0 mm 2 mps 759 mmHg 52%
    07:00 +7°C° 0 mm 2 mps 759 mmHg 50%
    08:00 +8°C° 0 mm 3 mps 759 mmHg 46%
    09:00 +10°C° 0 mm 4 mps 759 mmHg 41%
    10:00 +12°C° 0 mm 4 mps 759 mmHg 35%
    11:00 +14°C° 0 mm 5 mps 759 mmHg 30%
    12:00 +14°C° 0 mm 5 mps 759 mmHg 30%
    13:00 +15°C° 0 mm 5 mps 759 mmHg 29%
    14:00 +17°C° 0 mm 4 mps 759 mmHg 28%
    15:00 +17°C° 0 mm 4 mps 758 mmHg 30%
    16:00 +17°C° 0 mm 4 mps 758 mmHg 32%
    17:00 +17°C° 0 mm 3 mps 758 mmHg 35%
    18:00 +14°C° 0 mm 3 mps 757 mmHg 40%
    19:00 +12°C° 0 mm 3 mps 757 mmHg 45%
    20:00 +10°C° 0 mm 3 mps 757 mmHg 51%
    21:00 +9°C° 0 mm 3 mps 757 mmHg 52%
    22:00 +9°C° 0 mm 3 mps 757 mmHg 54%
    23:00 +8°C° 0 mm 3 mps 757 mmHg 55%

    Tomorrow, 8 April, Wednesday

    Time Temperature Precipitation Wind Pressure Humidity
    00:00 +8°C° 0 mm 3 mps 757 mmHg 57%
    01:00 +7°C° 0 mm 3 mps 757 mmHg 59%
    02:00 +7°C° 0 mm 3 mps 756 mmHg 60%
    03:00 +7°C° 0 mm 3 mps 756 mmHg 63%
    04:00 +5°C° 0 mm 3 mps 756 mmHg 65%
    05:00 +5°C° 0 mm 3 mps 756 mmHg 67%
    06:00 +7°C° 0 mm 3 mps 756 mmHg 65%
    07:00 +8°C° 0 mm 3 mps 756 mmHg 64%
    08:00 +10°C° 0 mm 3 mps 756 mmHg 62%
    09:00 +11°C° 0 mm 3 mps 756 mmHg 58%
    10:00 +13°C° 0 mm 3 mps 755 mmHg 55%
    11:00 +16°C° 0 mm 3 mps 755 mmHg 51%
    12:00 +17°C° 0 mm 3 mps 755 mmHg 47%
    13:00 +17°C° 0 mm 3 mps 755 mmHg 43%
    14:00 +18°C° 0 mm 4 mps 754 mmHg 39%
    15:00 +18°C° 0 mm 3 mps 754 mmHg 39%
    16:00 +17°C° 0 mm 3 mps 754 mmHg 39%
    17:00 +17°C° 0 mm 3 mps 753 mmHg 38%
    18:00 +14°C° 0 mm 3 mps 753 mmHg 44%
    19:00 +13°C° 0 mm 2 mps 753 mmHg 50%
    20:00 +11°C° 0 mm 1 mps 753 mmHg 55%
    21:00 +11°C° 0 mm 1 mps 753 mmHg 58%
    22:00 +10°C° 0 mm 1 mps 753 mmHg 60%
    23:00 +8°C° 0 mm 0 mps 752 mmHg 62%

    Day after tomorrow, 9 April, Thursday

    Time Temperature Precipitation Wind Pressure Humidity
    00:00 +8°C° 0 mm 0 mps 752 mmHg 64%
    01:00 +8°C° 0 mm 0 mps 752 mmHg 66%
    02:00 +7°C° 0 mm 0 mps 751 mmHg 67%
    03:00 +7°C° 0 mm 0 mps 751 mmHg 68%
    04:00 +8°C° 0 mm 1 mps 751 mmHg 69%
    05:00 +7°C° 0 mm 1 mps 751 mmHg 70%
    06:00 +9°C° 0 mm 1 mps 751 mmHg 66%
    07:00 +9°C° 0 mm 2 mps 750 mmHg 62%
    08:00 +10°C° 0 mm 2 mps 750 mmHg 58%
    09:00 +14°C° 0 mm 2 mps 750 mmHg 55%
    10:00 +16°C° 0 mm 3 mps 749 mmHg 52%
    11:00 +18°C° 0 mm 3 mps 749 mmHg 49%
    12:00 +18°C° 0 mm 3 mps 749 mmHg 47%
    13:00 +19°C° 0 mm 4 mps 748 mmHg 45%
    14:00 +20°C° 0 mm 4 mps 748 mmHg 42%
    15:00 +19°C° 0 mm 4 mps 747 mmHg 42%
    16:00 +19°C° 0 mm 4 mps 747 mmHg 41%
    17:00 +19°C° 0 mm 4 mps 746 mmHg 41%
    18:00 +17°C° 0 mm 4 mps 746 mmHg 44%
    19:00 +14°C° 0 mm 3 mps 746 mmHg 47%
    20:00 +12°C° 0 mm 3 mps 746 mmHg 49%
    21:00 +12°C° 0 mm 3 mps 746 mmHg 54%
    22:00 +11°C° 0 mm 3 mps 746 mmHg 59%
    23:00 +10°C° 0 mm 3 mps 746 mmHg 64%

    10 April, Friday

    Time Temperature Precipitation Wind Pressure Humidity
    00:00 +10°C° 0.1 mm 3 mps 746 mmHg 71%
    01:00 +9°C° 0.1 mm 3 mps 746 mmHg 79%
    02:00 +9°C° 0.1 mm 3 mps 746 mmHg 87%
    03:00 +8°C° 0.1 mm 3 mps 746 mmHg 86%
    04:00 +7°C° 0.1 mm 4 mps 746 mmHg 86%
    05:00 +6°C° 0.1 mm 5 mps 746 mmHg 86%
    06:00 +6°C° 0 mm 5 mps 747 mmHg 82%
    07:00 +5°C° 0 mm 6 mps 748 mmHg 79%
    08:00 +4°C° 0 mm 6 mps 748 mmHg 75%
    09:00 +5°C° 0 mm 6 mps 749 mmHg 63%
    10:00 +6°C° 0 mm 7 mps 749 mmHg 51%
    11:00 +8°C° 0 mm 7 mps 750 mmHg 39%
    12:00 +8°C° 0 mm 7 mps 750 mmHg 38%
    13:00 +9°C° 0 mm 7 mps 750 mmHg 38%
    14:00 +9°C° 0 mm 6 mps 750 mmHg 37%
    15:00 +9°C° 0 mm 6 mps 750 mmHg 38%
    16:00 +9°C° 0 mm 6 mps 750 mmHg 39%
    17:00 +9°C° 0 mm 6 mps 750 mmHg 40%
    18:00 +8°C° 0 mm 5 mps 750 mmHg 45%
    19:00 +7°C° 0 mm 4 mps 750 mmHg 49%
    20:00 +5°C° 0 mm 3 mps 750 mmHg 54%
    21:00 +5°C° 0 mm 3 mps 751 mmHg 57%
    22:00 +4°C° 0 mm 3 mps 751 mmHg 60%
    23:00 +4°C° 0 mm 2 mps 751 mmHg 64%

    11 April, Saturday

    Time Temperature Precipitation Wind Pressure Humidity
    00:00 +4°C° 0 mm 2 mps 751 mmHg 65%
    01:00 +3°C° 0 mm 2 mps 751 mmHg 66%
    02:00 +3°C° 0 mm 2 mps 751 mmHg 67%
    03:00 +2°C° 0 mm 2 mps 751 mmHg 68%
    04:00 +2°C° 0 mm 2 mps 751 mmHg 68%
    05:00 +1°C° 0 mm 2 mps 751 mmHg 68%
    06:00 +2°C° 0 mm 2 mps 752 mmHg 65%
    07:00 +3°C° 0 mm 2 mps 752 mmHg 61%
    08:00 +3°C° 0 mm 3 mps 752 mmHg 58%
    09:00 +5°C° 0 mm 3 mps 752 mmHg 54%
    10:00 +7°C° 0 mm 3 mps 752 mmHg 50%
    11:00 +8°C° 0 mm 3 mps 752 mmHg 46%
    12:00 +9°C° 0 mm 3 mps 752 mmHg 44%
    13:00 +10°C° 0 mm 3 mps 752 mmHg 41%
    14:00 +10°C° 0 mm 3 mps 752 mmHg 39%
    15:00 +10°C° 0 mm 3 mps 752 mmHg 39%
    16:00 +10°C° 0 mm 3 mps 752 mmHg 40%
    17:00 +10°C° 0 mm 3 mps 751 mmHg 40%
    18:00 +8°C° 0 mm 3 mps 751 mmHg 44%
    19:00 +7°C° 0 mm 2 mps 752 mmHg 47%
    20:00 +5°C° 0 mm 2 mps 752 mmHg 51%
    21:00 +5°C° 0 mm 2 mps 752 mmHg 52%
    22:00 +4°C° 0 mm 2 mps 752 mmHg 54%
    23:00 +3°C° 0 mm 2 mps 752 mmHg 56%

    12 April, Sunday

    Time Temperature Precipitation Wind Pressure Humidity
    00:00 +3°C° 0 mm 2 mps 752 mmHg 57%
    01:00 +2°C° 0 mm 2 mps 752 mmHg 59%
    02:00 +2°C° 0 mm 2 mps 752 mmHg 60%
    03:00 +2°C° 0 mm 2 mps 751 mmHg 61%
    04:00 +1°C° 0 mm 2 mps 751 mmHg 62%
    05:00 +1°C° 0 mm 2 mps 751 mmHg 63%
    06:00 +2°C° 0 mm 2 mps 751 mmHg 60%
    07:00 +4°C° 0 mm 2 mps 751 mmHg 56%
    08:00 +5°C° 0 mm 2 mps 750 mmHg 53%
    09:00 +7°C° 0 mm 2 mps 750 mmHg 49%
    10:00 +9°C° 0 mm 3 mps 750 mmHg 45%
    11:00 +10°C° 0 mm 3 mps 749 mmHg 41%
    12:00 +11°C° 0 mm 3 mps 749 mmHg 39%
    13:00 +12°C° 0 mm 3 mps 748 mmHg 38%
    14:00 +13°C° 0 mm 3 mps 748 mmHg 36%
    15:00 +14°C° 0 mm 3 mps 747 mmHg 37%
    16:00 +14°C° 0 mm 3 mps 747 mmHg 39%
    17:00 +15°C° 0 mm 2 mps 746 mmHg 40%
    18:00 +13°C° 0 mm 2 mps 746 mmHg 46%
    19:00 +12°C° 0 mm 2 mps 745 mmHg 52%
    20:00 +9°C° 0 mm 2 mps 745 mmHg 57%
    21:00 +9°C° 0 mm 2 mps 745 mmHg 60%
    22:00 +8°C° 0 mm 2 mps 744 mmHg 63%
    23:00 +8°C° 0 mm 2 mps 744 mmHg 66%
    Show more